TimeBST,TemperatureF,Dew PointF,Humidity,Sea Level PressureIn,VisibilityMPH,Wind Direction,Wind SpeedMPH,Gust SpeedMPH,PrecipitationIn,Events,Conditions,WindDirDegrees,DateUTC
12:50 AM,58,58,98,29.91,0,East,3.5,,,Fog,Partial Fog,90,2012-10-08 23:50:00
12:50 AM,57.2,57.2,100,29.89,0.1,East,3.5,-,N/A,,Mostly Cloudy,90,2012-10-08 23:50:00
1:50 AM,57.2,57.2,100,29.89,0.1,SW,1.2,-,N/A,Fog,Fog,230,2012-10-09 00:50:00
2:50 AM,59.0,57.2,94,29.89,0.1,East,4.6,-,N/A,,Light Drizzle,90,2012-10-09 01:50:00
3:50 AM,58,58,100,29.90,0,East,5.8,,,Rain,Light Drizzle,90,2012-10-09 02:50:00
3:50 AM,59.0,59.0,100,29.89,0.5,East,5.8,-,N/A,,Light Drizzle,90,2012-10-09 02:50:00
4:50 AM,59.0,59.0,100,29.89,0.6,SE,3.5,-,N/A,Rain,Light Rain,130,2012-10-09 03:50:00
5:50 AM,59.0,57.2,94,29.89,0.4,East,4.6,-,N/A,Rain,Light Rain,90,2012-10-09 04:50:00
6:50 AM,58,57,97,29.90,1,East,6.9,,,Rain,Light Rain,90,2012-10-09 05:50:00
6:50 AM,57.2,57.2,100,29.89,0.6,East,6.9,-,N/A,Rain,Light Rain,90,2012-10-09 05:50:00
7:50 AM,57.2,57.2,100,29.89,0.2,East,12.7,-,N/A,,Light Drizzle,90,2012-10-09 06:50:00
8:50 AM,57.2,57.2,100,29.92,0.3,East,11.5,-,N/A,,Light Drizzle,100,2012-10-09 07:50:00
9:50 AM,58,58,100,29.92,0,East,8.1,,,Rain,Light Drizzle,100,2012-10-09 08:50:00
9:50 AM,59.0,59.0,100,29.92,0.5,East,8.1,-,N/A,,Light Drizzle,100,2012-10-09 08:50:00
10:50 AM,59.0,57.2,94,29.92,0.5,East,10.4,-,N/A,,Light Drizzle,90,2012-10-09 09:50:00
11:50 AM,59.0,57.2,94,29.92,0.4,East,5.8,-,N/A,,Light Drizzle,80,2012-10-09 10:50:00
12:50 PM,58,58,100,29.93,1,East,4.6,,,Rain,Light Drizzle,90,2012-10-09 11:50:00
12:50 PM,59.0,59.0,100,29.92,0.6,East,4.6,-,N/A,,Light Drizzle,90,2012-10-09 11:50:00
1:42 PM,59.0,59.0,100,29.92,0.6,ENE,1.2,-,N/A,,Light Drizzle,70,2012-10-09 12:42:00
1:50 PM,59.0,59.0,100,29.92,1.2,East,2.3,-,N/A,Fog,Fog,80,2012-10-09 12:50:00
2:50 PM,60.8,59.0,94,29.92,3.1,WSW,3.5,-,N/A,Fog,Fog,240,2012-10-09 13:50:00
3:50 PM,60,58,93,29.92,5,WSW,3.5,,,,Mist,240,2012-10-09 14:50:00
3:50 PM,59.0,59.0,100,29.92,5.0,WSW,3.5,-,N/A,,Overcast,240,2012-10-09 14:50:00
4:50 PM,59.0,59.0,100,29.92,4.3,WSW,1.2,-,N/A,,Light Drizzle,250,2012-10-09 15:50:00
5:50 PM,59.0,57.2,94,29.92,0.6,ENE,8.1,-,N/A,,Light Drizzle,70,2012-10-09 16:50:00
6:50 PM,58,57,96,29.92,1,East,8.1,,,Fog,Partial Fog,80,2012-10-09 17:50:00
6:50 PM,57.2,57.2,100,29.92,0.6,East,8.1,-,N/A,Fog,Fog,80,2012-10-09 17:50:00
7:50 PM,57.2,57.2,100,29.92,0.9,East,8.1,-,N/A,,Light Drizzle,80,2012-10-09 18:50:00
8:50 PM,57.2,55.4,94,29.95,1.2,East,8.1,-,N/A,,Light Drizzle,90,2012-10-09 19:50:00
9:50 PM,56,56,100,29.95,1,East,8.1,,,Rain,Light Drizzle,80,2012-10-09 20:50:00
9:50 PM,57.2,55.4,94,29.95,1.2,East,8.1,-,N/A,,Light Drizzle,80,2012-10-09 20:50:00
10:50 PM,55.4,55.4,100,29.95,1.2,East,11.5,-,N/A,,Light Drizzle,90,2012-10-09 21:50:00
11:50 PM,55.4,55.4,100,29.95,1.6,East,9.2,-,N/A,,Light Drizzle,80,2012-10-09 22:50:00